星链-31623 (STARLINK-31623 )

导读

STARLINK-31623是美国SpaceX公司星链(Starlink)星座的卫星,于2024年3月19日发射,旨在为全球提供低延迟、高速宽带互联网服务。该卫星运行在近地轨道,轨道倾角约53.2°,轨道高度约475公里,每日绕地球约15.3圈,属于SpaceX打造全球互联网卫星星座计划的一部分,重点覆盖偏远和基础设施匮乏区域,助力全球互联互通。

Basic Information
目录编号:
59272
目录名称:
STARLINK-31623
国际标识:
2024-050U
轨道中心:
EARTH
卫星名称:
星链-31623
卫星全名:
星链-31623 (STARLINK-31623 )
卫星状态:
在轨 (已飞行899 天)
发射日期:
2024-03-19 UTC
国别 :
美国 (US)
星等 :
--
Orbit Information
数据来源 国际轨道数据 AOE轨道数据
星历时间 2026-09-04T05:19:25+0800
9小时前
查看轨道信息
2026-09-02T09:00:00+0800
2天前
查看轨道信息
半长轴 6840.878km 6840.871km
偏心率 0.0001066 0.00027
轨道倾角 53.161° 53.162°
近地点辐角 97.429° 98.520°
升交点赤经 71.013° 79.647°
平近点角 262.683° 134.440°
近地点 462.011km 460.886km
远地点 463.471km 464.582km
周期 93.849分钟 93.848分钟
每日圈数 15.343874 15.343897
Detailed Information
固有亮度:
5
最大亮度:
0.3
卫星平台:
Starlink v2.0 mini
覆盖范围:
全球
运营商:
太空探索技术公司
运营商所在国:
美国
制造商(研发单位):
太空探索技术公司
制造商所在国:
美国
使用方式:
暂无
Satellite Introduction
星链(Starlink)计划是由太空探索技术公司(SpaceX)提出的一个巨型低轨卫星互联网星座项目,计划在2019年至2024年间在太空搭建由约1.2万颗卫星组成的“星链”网络,其中1584颗将部署在地球上空550千米处的近地轨道,并从2020年开始工作。该卫星仍在工作。
2D Orbit Map
3D Orbit Map
Orbit Altitude Analysis Chart
Orbit Inclination Analysis Chart
Orbit Comprehensive Analysis Chart
View Comprehensive Chart
Conjunction Data List
Event ID Objects TCA Miss Dist (km) Collision Risk Probability Collision Risk Index (CRI) Action
CDM_260905-085505-927206-787121
2026-09-05T
08:55:11+0000
0.482 km
远距离
8.113731E-5 中风险 0.73
CDM_260905-102505-927206-982521
2026-09-05T
10:25:22+0000
0.527 km
远距离
5.925099E-5 中风险 0.7
CDM_260904-153405-927206-602122
2026-09-04T
15:34:56+0000
0.727 km
远距离
4.82805E-5 中风险 0.69
CDM_260904-065905-927206-602121
2026-09-04T
06:59:05+0000
0.995 km
远距离
1.714655E-5 中风险 0.6
CDM_260904-061505-927206-350322
2026-09-04T
06:15:03+0000
1.193 km
极远距离
6.6222E-6 低风险 0.51
CDM_260905-080405-927206-982521
2026-09-05T
08:04:41+0000
1.219 km
极远距离
3.874934E-6 低风险 0.47
CDM_260905-111505-927206-787121
2026-09-05T
11:15:53+0000
1.377 km
极远距离
2.823593E-6 低风险 0.44
CDM_260904-004605-927206-350322
2026-09-04T
00:46:47+0000
1.703 km
极远距离
2.146334E-6 低风险 0.42
CDM_260904-022005-927206-350321
2026-09-04T
02:20:34+0000
2.165 km
极远距离
1.185766E-6 低风险 0.36
CDM_260904-052505-927206-602122
2026-09-04T
05:25:18+0000
2.678 km
极远距离
1.059031E-6 低风险 0.35